Lid_Strength_Index
4 4 3 2 2 1 1 1 2 1 1 1 2 1 2 1 1 0 -0 0 0 1 2 3 3 3 3 4 5 6 8 9 9 10 11 11 12 12 12 12 13 13 13
5 4 4 3 2 2 2 2 2 2 1 1 1 0 1 1 1 1 1 1 1 1 2 3 3 3 4 4 6 7 9 10 10 10 10 12 11 12 12 13 13 13 13
6 5 5 3 3 2 2 2 2 2 1 1 1 2 2 3 2 2 1 1 1 2 3 3 3 3 4 5 5 7 8 10 10 10 9 12 11 12 12 13 13 13 14
5 5 4 4 3 3 2 2 2 2 1 1 1 2 2 3 2 1 1 2 2 2 3 3 4 3 4 4 5 6 7 9 9 10 9 9 10 11 13 13 13 13 14
5 5 4 3 3 2 2 2 2 2 2 1 1 2 2 1 3 3 2 2 2 2 3 4 5 5 4 4 5 6 7 8 8 9 10 10 10 11 12 13 13 14 13
5 4 4 3 3 2 2 2 2 2 2 2 2 2 2 2 4 4 3 2 3 3 4 5 5 5 4 4 5 5 6 7 8 9 9 10 10 11 12 13 14 13 13
5 5 5 4 3 3 2 2 3 3 2 2 2 2 2 1 3 4 3 2 3 5 4 5 6 6 6 5 5 6 6 7 9 8 9 9 10 10 11 12 14 14 13
5 5 4 4 4 3 3 2 2 3 3 2 2 2 2 2 3 3 3 3 2 3 3 6 6 6 7 6 5 6 6 7 7 9 9 9 11 12 12 12 14 15 14
5 5 4 4 3 3 3 3 2 2 3 3 2 2 2 2 2 3 3 3 3 3 5 5 6 7 8 8 7 7 7 7 8 9 9 10 10 12 12 13 13 13 15
10 8 4 4 3 3 3 2 2 2 2 3 3 2 2 2 2 3 3 3 3 4 5 6 7 7 8 9 9 9 8 9 9 10 11 12 13 13 13 13 14 14 13
10 8 6 5 3 3 3 3 3 3 3 3 3 3 2 2 2 3 3 3 4 5 6 6 7 8 9 10 10 10 10 10 11 11 11 12 14 14 14 15 15 15 14
10 9 8 7 5 4 4 3 3 3 3 3 3 3 2 2 2 3 3 3 5 5 5 6 7 8 9 9 10 11 11 11 12 12 13 13 15 15 15 15 16 15 14
12 12 11 10 8 7 6 5 4 4 3 3 3 3 3 3 3 3 4 4 5 6 6 7 8 8 9 10 10 10 12 13 13 14 14 15 15 16 16 16 16 15 16
13 13 13 12 11 10 8 7 6 5 5 4 4 4 3 3 3 3 4 5 5 6 7 8 8 8 9 10 11 12 13 13 14 15 15 15 16 16 16 16 16 16 16
14 14 14 13 13 12 10 9 8 8 6 4 4 4 4 3 3 4 4 5 6 6 6 8 8 8 9 11 12 13 13 13 15 15 15 15 15 15 15 16 16 16 16
14 14 14 14 14 14 13 11 9 9 8 7 8 7 6 5 4 4 5 6 6 7 8 9 10 11 11 12 12 13 14 14 15 16 16 16 17 15 14 14 14 14 15
15 15 15 14 14 15 14 14 12 10 9 9 9 10 10 10 10 10 10 11 11 12 11 12 12 12 11 12 13 13 14 15 15 15 16 17 17 17 16 14 13 13 13
15 16 16 15 15 15 15 14 13 12 11 12 11 12 12 12 13 12 12 12 13 12 13 13 14 13 13 13 13 14 15 15 15 15 16 16 16 16 16 15 15 15 14
15 16 16 16 17 17 17 15 15 15 15 16 15 15 14 13 13 13 13 14 14 14 14 15 15 15 15 13 13 14 15 15 16 16 16 16 16 15 14 15 15 15 15
16 17 16 17 18 18 17 17 17 18 18 18 17 16 15 14 14 13 14 15 15 15 16 15 15 16 16 13 13 14 16 16 17 17 17 16 15 14 14 15 15 15 15
17 17 17 18 19 19 18 18 18 19 19 19 18 17 16 16 15 14 16 16 16 16 16 16 16 16 15 14 13 14 15 15 16 16 17 16 14 13 13 13 14 14 15
18 18 19 19 20 20 19 19 19 20 20 19 18 17 16 16 16 16 16 16 16 16 16 16 16 16 16 15 13 12 13 13 14 15 16 16 13 13 11 13 13 12 14
18 19 20 20 20 21 20 20 20 20 20 18 17 16 17 16 16 15 15 15 16 15 16 16 15 16 17 15 13 12 13 13 14 15 15 14 13 11 11 12 12 14 15
19 20 20 20 20 21 20 21 20 20 18 17 16 15 16 16 14 14 15 15 15 15 15 15 15 15 16 16 14 13 13 14 14 14 14 13 13 12 12 12 12 13 14
20 22 24 23 22 22 21 21 20 20 19 16 15 15 15 15 14 14 14 14 14 13 14 14 14 14 15 15 14 13 14 14 14 14 14 14 14 14 13 13 13 13 14
22 23 24 23 23 22 22 21 21 21 21 18 17 16 15 15 14 14 14 12 12 12 11 11 12 13 12 12 12 12 13 13 13 14 14 14 14 14 14 14 14 14 14